Location: Bouchavesnes-Bergen
(49.9859°N, 2.9203°E)
Time: 00:03:02
(UTC+00:00)

Meteor 1-4 Rocket - Pass Details

Date: 09 March 2021
Orbit: 447 x 500 km, 81.2° (Epoch: 13 April)

Event Time Altitude Azimuth Distance (km) Brightness Sun altitude
Exits shadow 03:43:11 30° 7° (N) 874 4.1 -24.6°
Drops below altitude 10° 03:45:09 10° 10° (N) 1,649 5.7 -24.4°
Sets 03:47:14 0° 12° (NNE) 2,522 6.7 -24.0°
